| time (UTC) | temp F | wind direction | speed knots | gust knots | rain 1hr in | rain 24hr in | rain mn in | humidity % | barometer mb |
| 20260508103240 | 42 | 217 | 0.0 | 0.0 | 0.00 | 0.00 | 0.00 | 76 | 1007.0 |
| 20260508100137 | 39 | 217 | 0.0 | 0.0 | 0.00 | 0.00 | 0.00 | 81 | 1006.4 |
| 20260508094548 | 39 | 217 | 0.0 | 0.0 | 0.00 | 0.00 | 0.00 | 80 | 1006.3 |
| 20260508093124 | 39 | 217 | 0.0 | 0.0 | 0.00 | 0.00 | 0.00 | 80 | 1006.1 |
| 20260508091552 | 39 | 217 | 0.0 | 0.0 | 0.00 | 0.00 | 0.00 | 80 | 1006.1 |
| 20260508090008 | 39 | 217 | 0.0 | 0.0 | 0.00 | 0.00 | 0.00 | 79 | 1005.9 |
| 20260508084542 | 39 | 217 | 0.0 | 0.0 | 0.00 | 0.00 | 0.00 | 77 | 1005.9 |
| 20260508082959 | 39 | 217 | 0.0 | 0.0 | 0.00 | 0.00 | 0.00 | 77 | 1005.9 |
| 20260508081537 | 40 | 217 | 0.0 | 0.0 | 0.00 | 0.00 | 0.00 | 75 | 1005.9 |
| 20260508080039 | 40 | 217 | 0.0 | 0.0 | 0.00 | 0.00 | 0.00 | 75 | 1005.9 |
| 20260508074517 | 40 | 217 | 0.0 | 0.0 | 0.00 | 0.00 | 0.00 | 74 | 1005.6 |
| 20260508065712 | 42 | 217 | 0.0 | 0.0 | 0.00 | 0.01 | 0.00 | 70 | 1005.7 |
| 20260508064211 | 42 | 217 | 0.0 | 0.0 | 0.00 | 0.01 | 0.00 | 72 | 1005.6 |
| 20260508062734 | 42 | 217 | 0.0 | 0.0 | 0.00 | 0.01 | 0.00 | 72 | 1005.7 |
| 20260508061253 | 41 | 217 | 0.0 | 0.0 | 0.00 | 0.01 | 0.00 | 74 | 1005.8 |
| 20260508055715 | 42 | 217 | 0.0 | 0.0 | 0.00 | 0.04 | 0.00 | 72 | 1005.9 |
| 20260508054214 | 42 | 217 | 0.0 | 0.0 | 0.00 | 0.10 | 0.00 | 70 | 1006.0 |
| 20260508052703 | 43 | 217 | 0.0 | 0.0 | 0.00 | 0.13 | 0.00 | 71 | 1005.9 |
| 20260508051158 | 44 | 217 | 0.0 | 0.0 | 0.00 | 0.13 | 0.00 | 71 | 1005.9 |
| 20260508045730 | 45 | 238 | 0.0 | 0.0 | 0.00 | 0.13 | 0.00 | 69 | 1006.1 |
| 20260508044142 | 45 | 238 | 0.0 | 0.0 | 0.00 | 0.13 | 0.00 | 66 | 1006.2 |
| 20260508042638 | 45 | 288 | 0.0 | 0.0 | 0.00 | 0.13 | 0.00 | 62 | 1006.0 |
| 20260508041106 | 45 | 333 | 0.0 | 0.0 | 0.00 | 0.13 | 0.00 | 66 | 1006.2 |
| 20260508035602 | 46 | 340 | 0.0 | 0.0 | 0.00 | 0.13 | 0.13 | 65 | 1006.4 |
| 20260508034140 | 46 | 340 | 0.0 | 0.0 | 0.00 | 0.13 | 0.13 | 65 | 1006.4 |
| 20260508032630 | 46 | 188 | 0.0 | 0.0 | 0.00 | 0.13 | 0.13 | 64 | 1006.5 |
| 20260508031058 | 47 | 315 | 0.0 | 0.0 | 0.00 | 0.13 | 0.13 | 64 | 1006.4 |
| 20260508025556 | 47 | 310 | 0.0 | 0.0 | 0.00 | 0.15 | 0.13 | 60 | 1006.4 |
| 20260508024037 | 48 | 310 | 0.0 | 0.0 | 0.00 | 0.15 | 0.13 | 61 | 1006.2 |
| 20260508020839 | 49 | 310 | 0.0 | 0.0 | 0.00 | 0.17 | 0.13 | 60 | 1006.2 |
| 20260508015401 | 49 | 310 | 0.0 | 0.0 | 0.00 | 0.19 | 0.13 | 60 | 1006.3 |
| 20260508013912 | 50 | 246 | 0.0 | 0.0 | 0.00 | 0.20 | 0.13 | 60 | 1006.3 |
| 20260508012420 | 51 | 245 | 0.0 | 0.0 | 0.00 | 0.30 | 0.13 | 60 | 1006.3 |
| 20260508010837 | 51 | 288 | 0.0 | 0.0 | 0.00 | 0.36 | 0.13 | 58 | 1006.2 |
| 20260508003741 | 52 | 304 | 0.0 | 0.0 | 0.00 | 0.45 | 0.13 | 60 | 1005.9 |
| 20260508000642 | 52 | 270 | 0.0 | 0.0 | 0.00 | 0.54 | 0.13 | 76 | 1005.2 |
| 20260507235209 | 53 | 166 | 0.0 | 0.0 | 0.00 | 0.56 | 0.13 | 76 | 1005.1 |
| 20260507233654 | 54 | 166 | 0.0 | 0.0 | 0.00 | 0.59 | 0.13 | 76 | 1004.7 |
| 20260507230533 | 55 | 166 | 0.0 | 0.0 | 0.00 | 0.62 | 0.13 | 72 | 1004.0 |
| 20260507225043 | 55 | 166 | 0.0 | 0.0 | 0.00 | 0.63 | 0.13 | 73 | 1003.9 |
| 20260507223619 | 55 | 166 | 0.0 | 0.0 | 0.00 | 0.64 | 0.13 | 72 | 1003.8 |
| 20260507222154 | 55 | 153 | 0.0 | 0.0 | 0.00 | 0.65 | 0.13 | 72 | 1003.6 |
| 20260507220703 | 55 | 203 | 0.0 | 0.0 | 0.00 | 0.66 | 0.13 | 69 | 1003.8 |
| 20260507215143 | 56 | 203 | 0.0 | 0.0 | 0.00 | 0.69 | 0.13 | 69 | 1003.8 |
| 20260507213616 | 56 | 243 | 0.0 | 0.0 | 0.00 | 0.70 | 0.13 | 72 | 1003.8 |
| 20260507212132 | 56 | 194 | 0.0 | 0.0 | 0.00 | 0.71 | 0.13 | 69 | 1003.9 |
| 20260507210615 | 56 | 209 | 0.0 | 0.0 | 0.00 | 0.71 | 0.13 | 68 | 1004.0 |
| 20260507205039 | 57 | 194 | 0.0 | 0.0 | 0.00 | 0.71 | 0.13 | 67 | 1003.8 |
| 20260507203456 | 57 | 181 | 0.0 | 0.0 | 0.00 | 0.71 | 0.13 | 67 | 1003.6 |
| 20260507202020 | 58 | 190 | 0.0 | 5.2 | 0.00 | 0.71 | 0.13 | 66 | 1003.6 |
| 20260507200438 | 59 | 205 | 0.0 | 0.0 | 0.00 | 0.71 | 0.13 | 65 | 1003.7 |
| 20260507194918 | 61 | 192 | 0.0 | 7.8 | 0.00 | 0.71 | 0.13 | 60 | 1003.5 |
| 20260507193359 | 62 | 155 | 0.0 | 0.0 | 0.00 | 0.71 | 0.13 | 63 | 1003.6 |
| 20260507191843 | 63 | 194 | 0.0 | 3.5 | 0.00 | 0.71 | 0.13 | 61 | 1003.6 |
| 20260507190414 | 64 | 164 | 0.0 | 3.5 | 0.00 | 0.71 | 0.13 | 59 | 1003.6 |
| 20260507184902 | 64 | 167 | 0.0 | 3.5 | 0.00 | 0.71 | 0.13 | 59 | 1003.7 |
| 20260507183417 | 64 | 160 | 0.0 | 4.3 | 0.00 | 0.71 | 0.13 | 57 | 1003.7 |
| 20260507181933 | 65 | 184 | 0.0 | 0.9 | 0.00 | 0.71 | 0.13 | 58 | 1003.8 |
| 20260507180418 | 65 | 186 | 0.0 | 0.0 | 0.00 | 0.71 | 0.13 | 55 | 1003.9 |
| 20260507174854 | 64 | 183 | 0.0 | 3.5 | 0.00 | 0.71 | 0.13 | 58 | 1004.0 |
| 20260507173429 | 64 | 203 | 0.0 | 0.0 | 0.00 | 0.71 | 0.13 | 56 | 1003.9 |
| 20260507171853 | 63 | 0 | 0.0 | 0.0 | 0.00 | 0.71 | 0.13 | 61 | 1003.9 |
| 20260507163038 | 63 | 115 | 0.0 | 0.0 | 0.00 | 0.71 | 0.13 | 54 | 1004.3 |
| 20260507161615 | 63 | 211 | 0.0 | 0.0 | 0.00 | 0.71 | 0.13 | 54 | 1004.4 |
| 20260507154511 | 62 | 168 | 0.0 | 0.0 | 0.00 | 0.71 | 0.13 | 58 | 1004.7 |
| 20260507153010 | 62 | 296 | 0.0 | 0.0 | 0.00 | 0.71 | 0.13 | 63 | 1004.8 |
| 20260507151507 | 61 | 23 | 0.0 | 0.0 | 0.00 | 0.70 | 0.13 | 63 | 1004.8 |
| 20260507145924 | 60 | 285 | 0.0 | 0.0 | 0.00 | 0.70 | 0.13 | 69 | 1005.0 |
| 20260507144401 | 60 | 334 | 0.0 | 0.0 | 0.00 | 0.70 | 0.13 | 69 | 1005.3 |
| 20260507142902 | 59 | 222 | 0.0 | 0.0 | 0.00 | 0.70 | 0.13 | 70 | 1005.6 |
| 20260507141341 | 57 | 205 | 0.0 | 0.0 | 0.00 | 0.70 | 0.13 | 76 | 1005.6 |
| 20260507135842 | 56 | 121 | 0.0 | 0.0 | 0.00 | 0.70 | 0.13 | 76 | 1005.8 |
| 20260507132725 | 53 | 266 | 0.0 | 0.0 | 0.00 | 0.70 | 0.13 | 82 | 1006.3 |
| 20260507131136 | 53 | 267 | 0.0 | 0.0 | 0.00 | 0.70 | 0.13 | 85 | 1006.0 |
| 20260507125557 | 52 | 241 | 0.0 | 0.0 | 0.00 | 0.70 | 0.13 | 88 | 1006.1 |
| 20260507124026 | 51 | 217 | 0.0 | 0.0 | 0.00 | 0.70 | 0.13 | 90 | 1005.7 |
| 20260507122503 | 49 | 121 | 0.0 | 0.0 | 0.00 | 0.70 | 0.13 | 92 | 1005.6 |
| 20260507113737 | 48 | 300 | 0.0 | 0.0 | 0.00 | 0.70 | 0.13 | 93 | 1006.1 |
| 20260507112219 | 47 | 300 | 0.0 | 0.0 | 0.00 | 0.70 | 0.13 | 93 | 1006.5 |